Chicopee, MA

6:37 PM EDT on April 25, 2017 (GMT -0400)
Westover Air Reserve Base / Metropolitan Airport

Weather History for KCEF - November, 2013

Change the Weather History Date:

Saturday, November 23, 2013

  Actual Average Record
Temperature  
Mean Temperature 37 °F -  
Max Temperature 48 °F 44 °F 64 °F (1999)
Min Temperature 26 °F 28 °F 17 °F (2005)
Degree Days  
Heating Degree Days 28    
Moisture  
Dew Point 25 °F    
Average Humidity 64    
Maximum Humidity 100    
Minimum Humidity 37    
Precipitation  
Precipitation 0.01 in - - ()
Sea Level Pressure  
Sea Level Pressure 29.89 in    
Wind  
Wind Speed 13 mph (WNW)    
Max Wind Speed 29 mph    
Max Gust Speed 39 mph    
Visibility 9 miles    
Events Snow    
Averages and records for this station are not official NWS values.
T = Trace of Precipitation, MM = Missing Value Source: NWS Daily Summary

Daily Weather History Graph

Daily Weather History Graph

Search for Another Location

Airport or City:

Trip Planner

Search our weather history database for the weather conditions in past years. The results will help you decide how hot, cold, wet, or windy it might be!

Date:

Astronomy

Nov. 23, 2013 Rise Set
Actual Time 6:50 AM EST 4:22 PM EST
Civil Twilight 6:19 AM EST 4:53 PM EST
Nautical Twilight 5:45 AM EST 5:27 PM EST
Astronomical Twilight 5:11 AM EST 6:01 PM EST
Moon 9:50 PM EST (11/23) 11:03 AM EST (11/23)
Length of Visible Light 10h 33m
Length of Day
9h 32m
Waning Gibbous, 70% of the Moon is Illuminated
Nov 23
Waning Gibbous
Nov 25
Last Quarter
Dec 2
New
Dec 9
First Quarter
Dec 17
Full

Hourly Weather History & Observations

Time (EST) Temp. Windchill Dew Point Humidity Pressure Visibility Wind Dir Wind Speed Gust Speed Precip Events Conditions
12:00 AM 46.4 °F 42.9 °F 46.4 °F 100% 29.85 in 7.0 mi West 6.9 mph - N/A   Light Drizzle
12:01 AM 46.4 °F 41.9 °F 46.4 °F 100% 29.85 in 7.0 mi West 9.2 mph - N/A   Light Drizzle
12:03 AM 46.4 °F 41.5 °F 46.4 °F 100% 29.85 in 8.0 mi WNW 10.4 mph - N/A   Light Drizzle
12:05 AM 46.4 °F 41.9 °F 46.4 °F 100% 29.85 in 9.0 mi WNW 9.2 mph - N/A   Overcast
12:10 AM 46.4 °F 40.4 °F 46.4 °F 100% 29.85 in 10.0 mi WNW 13.8 mph 20.7 mph N/A   Overcast
12:14 AM 48.2 °F - 46.4 °F 93% 29.85 in 10.0 mi WNW 13.8 mph 20.7 mph N/A   Overcast
12:58 AM 48.0 °F - 42.6 °F 82% 29.87 in 10.0 mi WNW 10.4 mph - 0.00 in   Overcast
1:58 AM 45.1 °F 37.3 °F 34.7 °F 67% 29.88 in 10.0 mi NW 19.6 mph 28.8 mph 0.01 in   Clear
2:58 AM 43.7 °F 35.7 °F 33.4 °F 67% 29.88 in 10.0 mi NW 18.4 mph 25.3 mph N/A   Mostly Cloudy
3:58 AM 42.3 °F 35.5 °F 31.5 °F 66% 29.91 in 10.0 mi NW 12.7 mph 24.2 mph N/A   Mostly Cloudy
4:58 AM 39.6 °F 32.1 °F 29.8 °F 68% 29.94 in 10.0 mi WNW 12.7 mph - N/A   Scattered Clouds
5:58 AM 38.5 °F 31.1 °F 28.0 °F 66% 29.96 in 10.0 mi WNW 11.5 mph 20.7 mph N/A   Scattered Clouds
6:58 AM 36.5 °F 27.8 °F 26.8 °F 68% 29.96 in 10.0 mi West 13.8 mph - N/A   Clear
7:58 AM 36.5 °F 28.7 °F 25.2 °F 64% 30.00 in 10.0 mi WNW 11.5 mph - N/A   Clear
8:58 AM 38.3 °F 29.0 °F 22.8 °F 54% 29.99 in 10.0 mi WNW 17.3 mph - N/A   Clear
9:58 AM 39.9 °F 31.1 °F 23.5 °F 52% 29.99 in 10.0 mi WNW 17.3 mph - N/A   Clear
10:58 AM 40.8 °F 32.3 °F 19.8 °F 43% 29.96 in 10.0 mi NW 17.3 mph 25.3 mph N/A   Clear
11:58 AM 42.6 °F 35.2 °F 19.9 °F 40% 29.94 in 10.0 mi WNW 15.0 mph - N/A   Clear
12:12 PM 42.8 °F 35.4 °F 19.4 °F 39% 29.91 in 10.0 mi NW 15.0 mph 18.4 mph N/A   Clear
12:58 PM 41.2 °F 33.7 °F 19.4 °F 42% 29.91 in 10.0 mi WNW 13.8 mph 21.9 mph N/A   Clear
1:58 PM 40.5 °F 34.1 °F 20.3 °F 45% 29.91 in 10.0 mi NW 10.4 mph - N/A   Clear
2:58 PM 39.6 °F 33.5 °F 19.2 °F 44% 29.88 in 10.0 mi West 9.2 mph 18.4 mph N/A   Clear
3:58 PM 38.8 °F 30.8 °F 14.4 °F 37% 29.88 in 10.0 mi West 13.8 mph - N/A   Clear
4:58 PM 34.9 °F 32.0 °F 16.2 °F 46% 29.87 in 10.0 mi WNW 3.5 mph - N/A   Partly Cloudy
5:37 PM 35.6 °F 26.6 °F 17.6 °F 48% 29.84 in 10.0 mi West 13.8 mph 21.9 mph N/A Snow Light Snow
5:45 PM 37.4 °F 27.8 °F 19.4 °F 48% 29.84 in 10.0 mi West 17.3 mph 34.5 mph N/A   Mostly Cloudy
5:58 PM 36.9 °F 28.2 °F 19.6 °F 50% 29.87 in 10.0 mi West 13.8 mph 26.5 mph 0.00 in   Mostly Cloudy
6:58 PM 34.0 °F 21.5 °F 21.2 °F 60% 29.88 in 10.0 mi WNW 24.2 mph 31.1 mph N/A Snow Light Snow
7:03 PM 33.8 °F 22.5 °F 24.8 °F 70% 29.86 in 2.5 mi WNW 19.6 mph 25.3 mph N/A Snow Light Snow
7:10 PM 32.0 °F 23.6 °F 28.4 °F 87% 29.85 in 7.0 mi West 10.4 mph 25.3 mph N/A Snow Light Snow
7:19 PM 32.0 °F 22.5 °F 24.8 °F 75% 29.85 in 10.0 mi West 12.7 mph 20.7 mph N/A   Scattered Clouds
7:58 PM 32.5 °F 19.6 °F 19.8 °F 59% 29.88 in 10.0 mi WNW 24.2 mph 31.1 mph 0.00 in   Partly Cloudy
8:58 PM 31.6 °F 19.3 °F 16.5 °F 54% 29.88 in 10.0 mi NW 20.7 mph 27.6 mph N/A   Clear
9:58 PM 30.2 °F 17.4 °F 12.6 °F 48% 29.89 in 10.0 mi WNW 20.7 mph 34.5 mph N/A   Clear
10:38 PM 30.2 °F 15.4 °F 14.0 °F 51% 29.87 in 2.0 mi NW 28.8 mph 36.8 mph N/A Snow Light Snow
10:48 PM 26.6 °F 14.3 °F 21.2 °F 80% 29.87 in 4.0 mi NNW 16.1 mph 39.1 mph N/A Snow Light Snow
10:49 PM 26.6 °F 14.3 °F 21.2 °F 80% 29.87 in 4.0 mi NW 16.1 mph 39.1 mph N/A Snow Light Snow
10:58 PM 26.6 °F 13.8 °F 18.3 °F 71% 29.90 in 9.0 mi WNW 17.3 mph 25.3 mph 0.00 in Snow Light Snow
11:00 PM 26.6 °F 14.3 °F 15.8 °F 64% 29.87 in 10.0 mi WNW 16.1 mph 25.3 mph N/A   Partly Cloudy
11:10 PM 28.4 °F 17.0 °F 15.8 °F 59% 29.87 in 10.0 mi West 15.0 mph 25.3 mph N/A Snow Light Snow
11:23 PM 26.6 °F 11.4 °F 17.6 °F 69% 29.87 in 9.0 mi West 25.3 mph 36.8 mph N/A Snow Light Snow
11:36 PM 26.6 °F 12.7 °F 14.0 °F 59% 29.87 in 10.0 mi WNW 20.7 mph 28.8 mph N/A   Scattered Clouds
11:39 PM 26.6 °F 13.4 °F 14.0 °F 59% 29.87 in 10.0 mi WNW 18.4 mph 28.8 mph N/A   Partly Cloudy
11:58 PM 27.1 °F 13.4 °F 10.9 °F 51% 29.90 in 10.0 mi WNW 20.7 mph 33.4 mph 0.00 in   Partly Cloudy